Simultaneous Nadir Overpasses (SNOs) Predictions

Prediction of SNOs between METOP-B and TERRA Satellite Orbit:

Table of predicted SNOs for the next 14.0 days since TLE Epoch: 4/27/2019
Index Date (METOP-B) Time (METOP-B) Lat,Lon (METOP-B) SZA (METOP-B ) Date (TERRA) Time (TERRA) Lat,Lon (TERRA) SZA (TERRA ) Distance(km) Time Diff (sec)
1 04/29/2019 20:03:37 81.30, -74.05 69.63 04/29/2019 20:04:31 81.29, -74.14 69.64 1.86 54
2 04/29/2019 20:54:17 -81.30, 93.59 110.34 04/29/2019 20:53:57 -81.30, 93.76 110.33 2.93 20
3 05/02/2019 15:38:00 81.30, -7.51 68.81 05/02/2019 15:38:46 81.30, -7.52 68.83 0.18 46
4 05/02/2019 16:28:39 -81.31, 160.56 111.11 05/02/2019 16:28:12 -81.31, 160.40 111.14 2.78 27
5 05/05/2019 11:12:23 81.30, 59.01 68.02 05/05/2019 11:13:01 81.31, 59.08 68.05 1.40 38
6 05/05/2019 12:03:03 -81.31,-133.26 111.95 05/05/2019 12:02:28 -81.30,-133.36 111.98 1.69 35
7 05/08/2019 06:46:46 81.30, 125.13 67.21 05/08/2019 06:47:16 81.30, 125.29 67.24 2.69 30
8 05/08/2019 07:37:25 -81.31, -66.70 112.70 05/08/2019 07:36:42 -81.31, -66.75 112.72 0.99 43
9 05/11/2019 02:21:08 81.30,-167.97 66.53 05/11/2019 02:21:31 81.30,-168.13 66.53 2.73 23




NCC Satellite Simultaneous Nadir Overpasses (SNOs) Prediction Service
